Terminal Aerodrome Forecast
Issued by NWS Miami, FL

Home | Current Version | Previous Version | Text Only | Print | Product List | Glossary On
Versions: 1 2 3 4 5 6 7 8 9 10 11 12 13 14 15 16 17 18 19 20 21 22 23 24 25 26 27 28 29 30 31 32 33 34 35 36 37 38 39 40 41 42 43 44 45
000
FTUS42 KMFL 302101 AAA
TAFAPF
TAF AMD
KAPF 302101Z 3021/0118 09014G18KT P6SM SCT060
     FM302200 19010KT P6SM SCT035 BKN250
     FM010100 11007KT P6SM FEW035 SCT050 BKN250=

USA.gov is the U.S. government's official web portal to all federal, state and local government web resources and services.